Simultaneous Nadir Overpasses (SNOs) Predictions

Prediction of SNOs between AQUA and METOP-C Satellite Orbit:

Table of predicted SNOs for the next 14.0 days since TLE Epoch: 6/20/2020
Index Date (AQUA) Time (AQUA) Lat,Lon (AQUA) SZA (AQUA ) Date (METOP-C) Time (METOP-C) Lat,Lon (METOP-C) SZA (METOP-C ) Distance(km) Time Diff (sec)
1 06/20/2020 21:04:37 -73.70, 38.38 129.73 06/20/2020 21:03:45 -73.71, 38.32 129.71 2.18 52
2 06/20/2020 21:54:06 73.80,-154.20 50.38 06/20/2020 21:54:22 73.81,-154.09 50.39 3.62 16
3 06/20/2020 22:43:45 -74.47, 11.90 128.90 06/20/2020 22:44:51 -74.47, 14.88 129.00 88.72 66
4 06/23/2020 16:38:52 -73.71, 104.81 129.69 06/23/2020 16:38:07 -73.73, 104.77 129.66 2.58 45
5 06/23/2020 17:28:21 73.81, -87.79 50.43 06/23/2020 17:28:45 73.78, -87.76 50.40 3.45 24
6 06/26/2020 12:13:07 -73.72, 171.22 129.59 06/26/2020 12:12:29 -73.74, 171.22 129.56 3.00 38
7 06/26/2020 13:02:35 73.77, -21.27 50.48 06/26/2020 13:03:07 73.80, -21.31 50.50 3.21 32
8 06/29/2020 07:47:22 -73.73,-122.38 129.43 06/29/2020 07:46:51 -73.76,-122.34 129.40 3.14 31
9 06/29/2020 08:36:50 73.79, 45.13 50.64 06/29/2020 08:37:29 73.82, 45.14 50.66 2.88 39
10 07/02/2020 03:21:36 -73.75, -55.98 129.22 07/02/2020 03:21:12 -73.77, -55.90 129.20 3.28 24
11 07/02/2020 04:11:04 73.82, 111.52 50.86 07/02/2020 04:11:50 73.83, 111.59 50.87 2.91 46




NCC Satellite Simultaneous Nadir Overpasses (SNOs) Prediction Service
